owner,sensor,date,latitude,longitude,air_temperature,qcFlag 
WAVCIS,ioos:station:WAVCIS:CSI09:1,2009-10-01T00:00:00Z,29.1015,-89.9782,24.37,11111222 
WAVCIS,ioos:station:WAVCIS:CSI09:1,2009-10-01T01:00:00Z,29.1015,-89.9782,24.15,11111222 
WAVCIS,ioos:station:WAVCIS:CSI09:1,2009-10-01T02:00:00Z,29.1015,-89.9782,23.54,11111222 
WAVCIS,ioos:station:WAVCIS:CSI09:1,2009-10-01T03:00:00Z,29.1015,-89.9782,23.31,11111222 
WAVCIS,ioos:station:WAVCIS:CSI09:1,2009-10-01T04:00:00Z,29.1015,-89.9782,23.21,11111222 
WAVCIS,ioos:station:WAVCIS:CSI09:1,2009-10-01T05:00:00Z,29.1015,-89.9782,23.42,11111222 
WAVCIS,ioos:station:WAVCIS:CSI09:1,2009-10-01T06:00:00Z,29.1015,-89.9782,23.55,11111222 
WAVCIS,ioos:station:WAVCIS:CSI09:1,2009-10-01T07:00:00Z,29.1015,-89.9782,23.3,11111222 
WAVCIS,ioos:station:WAVCIS:CSI09:1,2009-10-01T08:00:00Z,29.1015,-89.9782,23.22,11111222 
WAVCIS,ioos:station:WAVCIS:CSI09:1,2009-10-01T09:00:00Z,29.1015,-89.9782,23.05,11111222 
WAVCIS,ioos:station:WAVCIS:CSI09:1,2009-10-01T10:00:00Z,29.1015,-89.9782,22.99,11111222 
WAVCIS,ioos:station:WAVCIS:CSI09:1,2009-10-01T11:00:00Z,29.1015,-89.9782,23.08,11111222 
WAVCIS,ioos:station:WAVCIS:CSI09:1,2009-10-01T12:00:00Z,29.1015,-89.9782,23.11,11111222 
WAVCIS,ioos:station:WAVCIS:CSI09:1,2009-10-01T13:00:00Z,29.1015,-89.9782,23.62,11111222 
WAVCIS,ioos:station:WAVCIS:CSI09:1,2009-10-01T14:00:00Z,29.1015,-89.9782,24.19,11111222 
WAVCIS,ioos:station:WAVCIS:CSI09:1,2009-10-01T15:00:00Z,29.1015,-89.9782,24.52,11111222 
WAVCIS,ioos:station:WAVCIS:CSI09:1,2009-10-01T16:00:00Z,29.1015,-89.9782,24.89,11111222 
WAVCIS,ioos:station:WAVCIS:CSI09:1,2009-10-01T17:00:00Z,29.1015,-89.9782,25.2,11111222 
WAVCIS,ioos:station:WAVCIS:CSI09:1,2009-10-01T18:00:00Z,29.1015,-89.9782,24.92,11111222 
WAVCIS,ioos:station:WAVCIS:CSI09:1,2009-10-01T19:00:00Z,29.1015,-89.9782,24.83,11111222 
WAVCIS,ioos:station:WAVCIS:CSI09:1,2009-10-01T20:00:00Z,29.1015,-89.9782,25.1,11111222 
WAVCIS,ioos:station:WAVCIS:CSI09:1,2009-10-01T21:00:00Z,29.1015,-89.9782,25.38,11111222 
WAVCIS,ioos:station:WAVCIS:CSI09:1,2009-10-01T22:00:00Z,29.1015,-89.9782,25.42,11111222 
WAVCIS,ioos:station:WAVCIS:CSI09:1,2009-10-01T23:00:00Z,29.1015,-89.9782,25.71,11111222 
WAVCIS,ioos:station:WAVCIS:CSI09:1,2009-10-02T00:00:00Z,29.1015,-89.9782,25.19,11111222 
WAVCIS,ioos:station:WAVCIS:CSI09:1,2009-10-02T01:00:00Z,29.1015,-89.9782,25.27,11111222 
WAVCIS,ioos:station:WAVCIS:CSI09:1,2009-10-02T02:00:00Z,29.1015,-89.9782,25.3,11111222 
WAVCIS,ioos:station:WAVCIS:CSI09:1,2009-10-02T03:00:00Z,29.1015,-89.9782,25.32,11111222 
WAVCIS,ioos:station:WAVCIS:CSI09:1,2009-10-02T04:00:00Z,29.1015,-89.9782,25.27,11111222 
WAVCIS,ioos:station:WAVCIS:CSI09:1,2009-10-02T05:00:00Z,29.1015,-89.9782,25.33,11111222 
WAVCIS,ioos:station:WAVCIS:CSI09:1,2009-10-02T06:00:00Z,29.1015,-89.9782,25.46,11111222 
WAVCIS,ioos:station:WAVCIS:CSI09:1,2009-10-02T07:00:00Z,29.1015,-89.9782,25.66,11111222 
WAVCIS,ioos:station:WAVCIS:CSI09:1,2009-10-02T08:00:00Z,29.1015,-89.9782,26.34,11111222 
WAVCIS,ioos:station:WAVCIS:CSI09:1,2009-10-02T09:00:00Z,29.1015,-89.9782,26.22,11111222 
WAVCIS,ioos:station:WAVCIS:CSI09:1,2009-10-02T10:00:00Z,29.1015,-89.9782,26.34,11111222 
WAVCIS,ioos:station:WAVCIS:CSI09:1,2009-10-02T11:00:00Z,29.1015,-89.9782,26.25,11111222 
WAVCIS,ioos:station:WAVCIS:CSI09:1,2009-10-02T12:00:00Z,29.1015,-89.9782,26.06,11111222 
WAVCIS,ioos:station:WAVCIS:CSI09:1,2009-10-02T13:00:00Z,29.1015,-89.9782,20.5,11111222 
WAVCIS,ioos:station:WAVCIS:CSI09:1,2009-10-02T14:00:00Z,29.1015,-89.9782,20.85,11111222 
WAVCIS,ioos:station:WAVCIS:CSI09:1,2009-10-02T15:00:00Z,29.1015,-89.9782,21.38,11111222 
WAVCIS,ioos:station:WAVCIS:CSI09:1,2009-10-02T16:00:00Z,29.1015,-89.9782,22.5,11111222 
WAVCIS,ioos:station:WAVCIS:CSI09:1,2009-10-02T17:00:00Z,29.1015,-89.9782,23.75,11111222 
WAVCIS,ioos:station:WAVCIS:CSI09:1,2009-10-02T18:00:00Z,29.1015,-89.9782,23.36,11111222 
WAVCIS,ioos:station:WAVCIS:CSI09:1,2009-10-02T19:00:00Z,29.1015,-89.9782,23.68,11111222 
WAVCIS,ioos:station:WAVCIS:CSI09:1,2009-10-02T20:00:00Z,29.1015,-89.9782,24.42,11111222 
WAVCIS,ioos:station:WAVCIS:CSI09:1,2009-10-02T21:00:00Z,29.1015,-89.9782,23.6,11111222 
WAVCIS,ioos:station:WAVCIS:CSI09:1,2009-10-02T22:00:00Z,29.1015,-89.9782,22.78,11111222 
WAVCIS,ioos:station:WAVCIS:CSI09:1,2009-10-02T23:00:00Z,29.1015,-89.9782,25.15,11111222 
WAVCIS,ioos:station:WAVCIS:CSI09:1,2009-10-03T00:00:00Z,29.1015,-89.9782,25.09,11111222 
WAVCIS,ioos:station:WAVCIS:CSI09:1,2009-10-03T01:00:00Z,29.1015,-89.9782,25.1,11111222 
WAVCIS,ioos:station:WAVCIS:CSI09:1,2009-10-03T02:00:00Z,29.1015,-89.9782,25.05,11111222 
WAVCIS,ioos:station:WAVCIS:CSI09:1,2009-10-03T03:00:00Z,29.1015,-89.9782,24.67,11111222 
WAVCIS,ioos:station:WAVCIS:CSI09:1,2009-10-03T04:00:00Z,29.1015,-89.9782,24.86,11111222 
WAVCIS,ioos:station:WAVCIS:CSI09:1,2009-10-03T05:00:00Z,29.1015,-89.9782,25.11,11111222 
WAVCIS,ioos:station:WAVCIS:CSI09:1,2009-10-03T06:00:00Z,29.1015,-89.9782,25.11,11111222 
WAVCIS,ioos:station:WAVCIS:CSI09:1,2009-10-03T07:00:00Z,29.1015,-89.9782,25.23,11111222 
WAVCIS,ioos:station:WAVCIS:CSI09:1,2009-10-03T08:00:00Z,29.1015,-89.9782,25.27,11111222 
WAVCIS,ioos:station:WAVCIS:CSI09:1,2009-10-03T09:00:00Z,29.1015,-89.9782,25.37,11111222 
WAVCIS,ioos:station:WAVCIS:CSI09:1,2009-10-03T10:00:00Z,29.1015,-89.9782,25.62,11111222 
WAVCIS,ioos:station:WAVCIS:CSI09:1,2009-10-03T11:00:00Z,29.1015,-89.9782,25.58,11111222 
WAVCIS,ioos:station:WAVCIS:CSI09:1,2009-10-03T12:00:00Z,29.1015,-89.9782,25.32,11111222 
WAVCIS,ioos:station:WAVCIS:CSI09:1,2009-10-03T13:00:00Z,29.1015,-89.9782,24.71,11111222 
WAVCIS,ioos:station:WAVCIS:CSI09:1,2009-10-03T14:00:00Z,29.1015,-89.9782,25.71,11111222 
WAVCIS,ioos:station:WAVCIS:CSI09:1,2009-10-03T15:00:00Z,29.1015,-89.9782,26.22,11111222 
WAVCIS,ioos:station:WAVCIS:CSI09:1,2009-10-03T16:00:00Z,29.1015,-89.9782,26.37,11111222 
WAVCIS,ioos:station:WAVCIS:CSI09:1,2009-10-03T17:00:00Z,29.1015,-89.9782,26.37,11111222 
WAVCIS,ioos:station:WAVCIS:CSI09:1,2009-10-03T18:00:00Z,29.1015,-89.9782,26.49,11111222 
WAVCIS,ioos:station:WAVCIS:CSI09:1,2009-10-03T19:00:00Z,29.1015,-89.9782,26.81,11111222 
WAVCIS,ioos:station:WAVCIS:CSI09:1,2009-10-03T20:00:00Z,29.1015,-89.9782,26.91,11111222 
WAVCIS,ioos:station:WAVCIS:CSI09:1,2009-10-03T21:00:00Z,29.1015,-89.9782,27.51,11111222 
WAVCIS,ioos:station:WAVCIS:CSI09:1,2009-10-03T22:00:00Z,29.1015,-89.9782,26.92,11111222 
WAVCIS,ioos:station:WAVCIS:CSI09:1,2009-10-03T23:00:00Z,29.1015,-89.9782,26.59,11111222 
WAVCIS,ioos:station:WAVCIS:CSI09:1,2009-10-04T00:00:00Z,29.1015,-89.9782,26.75,11111222 
WAVCIS,ioos:station:WAVCIS:CSI09:1,2009-10-04T01:00:00Z,29.1015,-89.9782,26.71,11111222 
WAVCIS,ioos:station:WAVCIS:CSI09:1,2009-10-04T02:00:00Z,29.1015,-89.9782,26.96,11111222 
WAVCIS,ioos:station:WAVCIS:CSI09:1,2009-10-04T03:00:00Z,29.1015,-89.9782,26.88,11111222 
WAVCIS,ioos:station:WAVCIS:CSI09:1,2009-10-04T04:00:00Z,29.1015,-89.9782,26.81,11111222 
WAVCIS,ioos:station:WAVCIS:CSI09:1,2009-10-04T05:00:00Z,29.1015,-89.9782,26.82,11111222 
WAVCIS,ioos:station:WAVCIS:CSI09:1,2009-10-04T06:00:00Z,29.1015,-89.9782,26.79,11111222 
WAVCIS,ioos:station:WAVCIS:CSI09:1,2009-10-04T07:00:00Z,29.1015,-89.9782,26.8,11111222 
WAVCIS,ioos:station:WAVCIS:CSI09:1,2009-10-04T08:00:00Z,29.1015,-89.9782,26.88,11111222 
WAVCIS,ioos:station:WAVCIS:CSI09:1,2009-10-04T09:00:00Z,29.1015,-89.9782,26.89,11111222 
WAVCIS,ioos:station:WAVCIS:CSI09:1,2009-10-04T10:00:00Z,29.1015,-89.9782,26.79,11111222 
WAVCIS,ioos:station:WAVCIS:CSI09:1,2009-10-04T11:00:00Z,29.1015,-89.9782,26.74,11111222 
WAVCIS,ioos:station:WAVCIS:CSI09:1,2009-10-04T12:00:00Z,29.1015,-89.9782,25.9,11111222 
WAVCIS,ioos:station:WAVCIS:CSI09:1,2009-10-04T13:00:00Z,29.1015,-89.9782,26.26,11111222 
WAVCIS,ioos:station:WAVCIS:CSI09:1,2009-10-04T14:00:00Z,29.1015,-89.9782,26.57,11111222 
WAVCIS,ioos:station:WAVCIS:CSI09:1,2009-10-04T15:00:00Z,29.1015,-89.9782,26.78,11111222 
WAVCIS,ioos:station:WAVCIS:CSI09:1,2009-10-04T16:00:00Z,29.1015,-89.9782,26.88,11111222 
WAVCIS,ioos:station:WAVCIS:CSI09:1,2009-10-04T17:00:00Z,29.1015,-89.9782,27.22,11111222 
WAVCIS,ioos:station:WAVCIS:CSI09:1,2009-10-04T18:00:00Z,29.1015,-89.9782,27.25,11111222 
WAVCIS,ioos:station:WAVCIS:CSI09:1,2009-10-04T19:00:00Z,29.1015,-89.9782,24.38,11111222 
WAVCIS,ioos:station:WAVCIS:CSI09:1,2009-10-04T20:00:00Z,29.1015,-89.9782,27.4,11111222 
WAVCIS,ioos:station:WAVCIS:CSI09:1,2009-10-04T21:00:00Z,29.1015,-89.9782,28.27,11111222 
WAVCIS,ioos:station:WAVCIS:CSI09:1,2009-10-04T22:00:00Z,29.1015,-89.9782,29.17,11111222 
WAVCIS,ioos:station:WAVCIS:CSI09:1,2009-10-04T23:00:00Z,29.1015,-89.9782,28.93,11111222 
WAVCIS,ioos:station:WAVCIS:CSI09:1,2009-10-05T00:00:00Z,29.1015,-89.9782,29.33,11111222 
WAVCIS,ioos:station:WAVCIS:CSI09:1,2009-10-05T01:00:00Z,29.1015,-89.9782,28.66,11111222 
WAVCIS,ioos:station:WAVCIS:CSI09:1,2009-10-05T02:00:00Z,29.1015,-89.9782,28.37,11111222 
WAVCIS,ioos:station:WAVCIS:CSI09:1,2009-10-05T03:00:00Z,29.1015,-89.9782,28.72,11111222 
WAVCIS,ioos:station:WAVCIS:CSI09:1,2009-10-05T04:00:00Z,29.1015,-89.9782,28.86,11111222 
WAVCIS,ioos:station:WAVCIS:CSI09:1,2009-10-05T05:00:00Z,29.1015,-89.9782,28.46,11111222 
WAVCIS,ioos:station:WAVCIS:CSI09:1,2009-10-05T06:00:00Z,29.1015,-89.9782,28.37,11111222 
WAVCIS,ioos:station:WAVCIS:CSI09:1,2009-10-05T07:00:00Z,29.1015,-89.9782,28.13,11111222 
WAVCIS,ioos:station:WAVCIS:CSI09:1,2009-10-05T08:00:00Z,29.1015,-89.9782,28.27,11111222 
WAVCIS,ioos:station:WAVCIS:CSI09:1,2009-10-05T09:00:00Z,29.1015,-89.9782,27.9,11111222 
WAVCIS,ioos:station:WAVCIS:CSI09:1,2009-10-05T10:00:00Z,29.1015,-89.9782,27.88,11111222 
WAVCIS,ioos:station:WAVCIS:CSI09:1,2009-10-05T11:00:00Z,29.1015,-89.9782,27.98,11111222 
WAVCIS,ioos:station:WAVCIS:CSI09:1,2009-10-05T12:00:00Z,29.1015,-89.9782,27.65,11111222 
WAVCIS,ioos:station:WAVCIS:CSI09:1,2009-10-05T13:00:00Z,29.1015,-89.9782,27.48,11111222 
WAVCIS,ioos:station:WAVCIS:CSI09:1,2009-10-05T14:00:00Z,29.1015,-89.9782,27.74,11111222 
WAVCIS,ioos:station:WAVCIS:CSI09:1,2009-10-05T15:00:00Z,29.1015,-89.9782,27.71,11111222 
WAVCIS,ioos:station:WAVCIS:CSI09:1,2009-10-05T16:00:00Z,29.1015,-89.9782,27.94,11111222 
WAVCIS,ioos:station:WAVCIS:CSI09:1,2009-10-05T17:00:00Z,29.1015,-89.9782,28.12,11111222 
WAVCIS,ioos:station:WAVCIS:CSI09:1,2009-10-05T18:00:00Z,29.1015,-89.9782,28.08,11111222 
WAVCIS,ioos:station:WAVCIS:CSI09:1,2009-10-05T19:00:00Z,29.1015,-89.9782,28.07,11111222 
WAVCIS,ioos:station:WAVCIS:CSI09:1,2009-10-05T20:00:00Z,29.1015,-89.9782,28.09,11111222 
WAVCIS,ioos:station:WAVCIS:CSI09:1,2009-10-05T21:00:00Z,29.1015,-89.9782,28.29,11111222 
WAVCIS,ioos:station:WAVCIS:CSI09:1,2009-10-05T22:00:00Z,29.1015,-89.9782,28.33,11111222 
WAVCIS,ioos:station:WAVCIS:CSI09:1,2009-10-05T23:00:00Z,29.1015,-89.9782,27.96,11111222 
WAVCIS,ioos:station:WAVCIS:CSI09:1,2009-10-06T00:00:00Z,29.1015,-89.9782,27.82,11111222 
WAVCIS,ioos:station:WAVCIS:CSI09:1,2009-10-06T01:00:00Z,29.1015,-89.9782,27.83,11111222 
WAVCIS,ioos:station:WAVCIS:CSI09:1,2009-10-06T02:00:00Z,29.1015,-89.9782,27.73,11111222 
WAVCIS,ioos:station:WAVCIS:CSI09:1,2009-10-06T03:00:00Z,29.1015,-89.9782,27.61,11111222 
WAVCIS,ioos:station:WAVCIS:CSI09:1,2009-10-06T04:00:00Z,29.1015,-89.9782,27.45,11111222 
WAVCIS,ioos:station:WAVCIS:CSI09:1,2009-10-06T05:00:00Z,29.1015,-89.9782,27.34,11111222 
WAVCIS,ioos:station:WAVCIS:CSI09:1,2009-10-06T06:00:00Z,29.1015,-89.9782,27.57,11111222 
WAVCIS,ioos:station:WAVCIS:CSI09:1,2009-10-06T07:00:00Z,29.1015,-89.9782,27.63,11111222 
WAVCIS,ioos:station:WAVCIS:CSI09:1,2009-10-06T08:00:00Z,29.1015,-89.9782,27.46,11111222 
WAVCIS,ioos:station:WAVCIS:CSI09:1,2009-10-06T09:00:00Z,29.1015,-89.9782,27.59,11111222 
WAVCIS,ioos:station:WAVCIS:CSI09:1,2009-10-06T10:00:00Z,29.1015,-89.9782,27.26,11111222 
WAVCIS,ioos:station:WAVCIS:CSI09:1,2009-10-06T11:00:00Z,29.1015,-89.9782,27.46,11111222 
WAVCIS,ioos:station:WAVCIS:CSI09:1,2009-10-06T12:00:00Z,29.1015,-89.9782,27.17,11111222 
WAVCIS,ioos:station:WAVCIS:CSI09:1,2009-10-06T13:00:00Z,29.1015,-89.9782,27.47,11111222 
WAVCIS,ioos:station:WAVCIS:CSI09:1,2009-10-06T14:00:00Z,29.1015,-89.9782,27.73,11111222 
WAVCIS,ioos:station:WAVCIS:CSI09:1,2009-10-06T15:00:00Z,29.1015,-89.9782,27.91,11111222 
WAVCIS,ioos:station:WAVCIS:CSI09:1,2009-10-06T16:00:00Z,29.1015,-89.9782,28.52,11111222 
WAVCIS,ioos:station:WAVCIS:CSI09:1,2009-10-06T17:00:00Z,29.1015,-89.9782,28.85,11111222 
WAVCIS,ioos:station:WAVCIS:CSI09:1,2009-10-06T18:00:00Z,29.1015,-89.9782,29.47,11111222 
WAVCIS,ioos:station:WAVCIS:CSI09:1,2009-10-06T19:00:00Z,29.1015,-89.9782,29.25,11111222 
WAVCIS,ioos:station:WAVCIS:CSI09:1,2009-10-06T20:00:00Z,29.1015,-89.9782,28.93,11111222 
WAVCIS,ioos:station:WAVCIS:CSI09:1,2009-10-06T21:00:00Z,29.1015,-89.9782,29.59,11111222 
WAVCIS,ioos:station:WAVCIS:CSI09:1,2009-10-06T22:00:00Z,29.1015,-89.9782,29.38,11111222 
WAVCIS,ioos:station:WAVCIS:CSI09:1,2009-10-06T23:00:00Z,29.1015,-89.9782,28.91,11111222 
WAVCIS,ioos:station:WAVCIS:CSI09:1,2009-10-07T00:00:00Z,29.1015,-89.9782,28.69,11111222 
WAVCIS,ioos:station:WAVCIS:CSI09:1,2009-10-07T01:00:00Z,29.1015,-89.9782,28.94,11111222 
WAVCIS,ioos:station:WAVCIS:CSI09:1,2009-10-07T02:00:00Z,29.1015,-89.9782,27.69,11111222 
WAVCIS,ioos:station:WAVCIS:CSI09:1,2009-10-07T03:00:00Z,29.1015,-89.9782,28.03,11111222 
WAVCIS,ioos:station:WAVCIS:CSI09:1,2009-10-07T04:00:00Z,29.1015,-89.9782,27.93,11111222 
WAVCIS,ioos:station:WAVCIS:CSI09:1,2009-10-07T05:00:00Z,29.1015,-89.9782,28.06,11111222 
WAVCIS,ioos:station:WAVCIS:CSI09:1,2009-10-07T06:00:00Z,29.1015,-89.9782,28.22,11111222 
WAVCIS,ioos:station:WAVCIS:CSI09:1,2009-10-07T07:00:00Z,29.1015,-89.9782,28.12,11111222 
WAVCIS,ioos:station:WAVCIS:CSI09:1,2009-10-07T08:00:00Z,29.1015,-89.9782,28.14,11111222 
WAVCIS,ioos:station:WAVCIS:CSI09:1,2009-10-07T09:00:00Z,29.1015,-89.9782,28.02,11111222 
WAVCIS,ioos:station:WAVCIS:CSI09:1,2009-10-07T10:00:00Z,29.1015,-89.9782,27.8,11111222 
WAVCIS,ioos:station:WAVCIS:CSI09:1,2009-10-07T11:00:00Z,29.1015,-89.9782,28.19,11111222 
WAVCIS,ioos:station:WAVCIS:CSI09:1,2009-10-07T12:00:00Z,29.1015,-89.9782,28.14,11111222 
WAVCIS,ioos:station:WAVCIS:CSI09:1,2009-10-07T13:00:00Z,29.1015,-89.9782,28.52,11111222 
WAVCIS,ioos:station:WAVCIS:CSI09:1,2009-10-07T14:00:00Z,29.1015,-89.9782,28.18,11111222 
WAVCIS,ioos:station:WAVCIS:CSI09:1,2009-10-07T15:00:00Z,29.1015,-89.9782,28.43,11111222 
WAVCIS,ioos:station:WAVCIS:CSI09:1,2009-10-07T16:00:00Z,29.1015,-89.9782,28.72,11111222 
WAVCIS,ioos:station:WAVCIS:CSI09:1,2009-10-07T17:00:00Z,29.1015,-89.9782,28.51,11111222 
WAVCIS,ioos:station:WAVCIS:CSI09:1,2009-10-07T18:00:00Z,29.1015,-89.9782,28.52,11111222 
WAVCIS,ioos:station:WAVCIS:CSI09:1,2009-10-07T19:00:00Z,29.1015,-89.9782,28.37,11111222 
WAVCIS,ioos:station:WAVCIS:CSI09:1,2009-10-07T20:00:00Z,29.1015,-89.9782,28.73,11111222 
WAVCIS,ioos:station:WAVCIS:CSI09:1,2009-10-07T21:00:00Z,29.1015,-89.9782,29.04,11111222 
WAVCIS,ioos:station:WAVCIS:CSI09:1,2009-10-07T22:00:00Z,29.1015,-89.9782,29.37,11111222 
WAVCIS,ioos:station:WAVCIS:CSI09:1,2009-10-07T23:00:00Z,29.1015,-89.9782,29.42,11111222 
WAVCIS,ioos:station:WAVCIS:CSI09:1,2009-10-08T00:00:00Z,29.1015,-89.9782,28.68,11111222 
WAVCIS,ioos:station:WAVCIS:CSI09:1,2009-10-08T01:00:00Z,29.1015,-89.9782,28.34,11111222 
WAVCIS,ioos:station:WAVCIS:CSI09:1,2009-10-08T02:00:00Z,29.1015,-89.9782,28.13,11111222 
WAVCIS,ioos:station:WAVCIS:CSI09:1,2009-10-08T03:00:00Z,29.1015,-89.9782,28.12,11111222 
WAVCIS,ioos:station:WAVCIS:CSI09:1,2009-10-08T04:00:00Z,29.1015,-89.9782,28.1,11111222 
WAVCIS,ioos:station:WAVCIS:CSI09:1,2009-10-08T05:00:00Z,29.1015,-89.9782,28.05,11111222 
WAVCIS,ioos:station:WAVCIS:CSI09:1,2009-10-08T06:00:00Z,29.1015,-89.9782,28.09,11111222 
WAVCIS,ioos:station:WAVCIS:CSI09:1,2009-10-08T07:00:00Z,29.1015,-89.9782,27.94,11111222 
WAVCIS,ioos:station:WAVCIS:CSI09:1,2009-10-08T08:00:00Z,29.1015,-89.9782,27.88,11111222 
WAVCIS,ioos:station:WAVCIS:CSI09:1,2009-10-08T09:00:00Z,29.1015,-89.9782,27.89,11111222 
WAVCIS,ioos:station:WAVCIS:CSI09:1,2009-10-08T10:00:00Z,29.1015,-89.9782,27.85,11111222 
WAVCIS,ioos:station:WAVCIS:CSI09:1,2009-10-08T11:00:00Z,29.1015,-89.9782,27.91,11111222 
WAVCIS,ioos:station:WAVCIS:CSI09:1,2009-10-08T12:00:00Z,29.1015,-89.9782,28.03,11111222 
WAVCIS,ioos:station:WAVCIS:CSI09:1,2009-10-08T13:00:00Z,29.1015,-89.9782,28.29,11111222 
WAVCIS,ioos:station:WAVCIS:CSI09:1,2009-10-08T14:00:00Z,29.1015,-89.9782,28.38,11111222 
WAVCIS,ioos:station:WAVCIS:CSI09:1,2009-10-08T15:00:00Z,29.1015,-89.9782,28.3,11111222 
WAVCIS,ioos:station:WAVCIS:CSI09:1,2009-10-08T16:00:00Z,29.1015,-89.9782,28.44,11111222 
WAVCIS,ioos:station:WAVCIS:CSI09:1,2009-10-08T17:00:00Z,29.1015,-89.9782,28.47,11111222 
WAVCIS,ioos:station:WAVCIS:CSI09:1,2009-10-08T18:00:00Z,29.1015,-89.9782,28.51,11111222 
WAVCIS,ioos:station:WAVCIS:CSI09:1,2009-10-08T19:00:00Z,29.1015,-89.9782,28.67,11111222 
WAVCIS,ioos:station:WAVCIS:CSI09:1,2009-10-08T20:00:00Z,29.1015,-89.9782,28.73,11111222 
WAVCIS,ioos:station:WAVCIS:CSI09:1,2009-10-08T21:00:00Z,29.1015,-89.9782,28.72,11111222 
WAVCIS,ioos:station:WAVCIS:CSI09:1,2009-10-08T22:00:00Z,29.1015,-89.9782,28.53,11111222 
WAVCIS,ioos:station:WAVCIS:CSI09:1,2009-10-08T23:00:00Z,29.1015,-89.9782,28.72,11111222 
WAVCIS,ioos:station:WAVCIS:CSI09:1,2009-10-09T00:00:00Z,29.1015,-89.9782,28.51,11111222 
WAVCIS,ioos:station:WAVCIS:CSI09:1,2009-10-09T01:00:00Z,29.1015,-89.9782,28.46,11111222 
WAVCIS,ioos:station:WAVCIS:CSI09:1,2009-10-09T02:00:00Z,29.1015,-89.9782,28.43,11111222 
WAVCIS,ioos:station:WAVCIS:CSI09:1,2009-10-09T03:00:00Z,29.1015,-89.9782,28.39,11111222 
WAVCIS,ioos:station:WAVCIS:CSI09:1,2009-10-09T04:00:00Z,29.1015,-89.9782,28.32,11111222 
WAVCIS,ioos:station:WAVCIS:CSI09:1,2009-10-09T05:00:00Z,29.1015,-89.9782,28.33,11111222 
WAVCIS,ioos:station:WAVCIS:CSI09:1,2009-10-09T06:00:00Z,29.1015,-89.9782,28.29,11111222 
WAVCIS,ioos:station:WAVCIS:CSI09:1,2009-10-09T07:00:00Z,29.1015,-89.9782,28.32,11111222 
WAVCIS,ioos:station:WAVCIS:CSI09:1,2009-10-09T08:00:00Z,29.1015,-89.9782,28.25,11111222 
WAVCIS,ioos:station:WAVCIS:CSI09:1,2009-10-09T09:00:00Z,29.1015,-89.9782,28.25,11111222 
WAVCIS,ioos:station:WAVCIS:CSI09:1,2009-10-09T10:00:00Z,29.1015,-89.9782,28.25,11111222 
WAVCIS,ioos:station:WAVCIS:CSI09:1,2009-10-09T11:00:00Z,29.1015,-89.9782,28.3,11111222 
WAVCIS,ioos:station:WAVCIS:CSI09:1,2009-10-09T12:00:00Z,29.1015,-89.9782,28.55,11111222 
WAVCIS,ioos:station:WAVCIS:CSI09:1,2009-10-09T13:00:00Z,29.1015,-89.9782,28.46,11111222 
WAVCIS,ioos:station:WAVCIS:CSI09:1,2009-10-09T14:00:00Z,29.1015,-89.9782,28.99,11111222 
WAVCIS,ioos:station:WAVCIS:CSI09:1,2009-10-09T15:00:00Z,29.1015,-89.9782,29.49,11111222 
WAVCIS,ioos:station:WAVCIS:CSI09:1,2009-10-09T16:00:00Z,29.1015,-89.9782,29.29,11111222 
WAVCIS,ioos:station:WAVCIS:CSI09:1,2009-10-09T17:00:00Z,29.1015,-89.9782,29.16,11111222 
WAVCIS,ioos:station:WAVCIS:CSI09:1,2009-10-09T18:00:00Z,29.1015,-89.9782,29.45,11111222 
WAVCIS,ioos:station:WAVCIS:CSI09:1,2009-10-09T19:00:00Z,29.1015,-89.9782,29.94,11111222 
WAVCIS,ioos:station:WAVCIS:CSI09:1,2009-10-09T20:00:00Z,29.1015,-89.9782,29.85,11111222 
WAVCIS,ioos:station:WAVCIS:CSI09:1,2009-10-09T21:00:00Z,29.1015,-89.9782,29.98,11111222 
WAVCIS,ioos:station:WAVCIS:CSI09:1,2009-10-09T22:00:00Z,29.1015,-89.9782,29.35,11111222 
WAVCIS,ioos:station:WAVCIS:CSI09:1,2009-10-09T23:00:00Z,29.1015,-89.9782,29.45,11111222 
WAVCIS,ioos:station:WAVCIS:CSI09:1,2009-10-10T00:00:00Z,29.1015,-89.9782,29.71,11111222 
WAVCIS,ioos:station:WAVCIS:CSI09:1,2009-10-10T01:00:00Z,29.1015,-89.9782,29.52,11111222 
WAVCIS,ioos:station:WAVCIS:CSI09:1,2009-10-10T02:00:00Z,29.1015,-89.9782,26.13,11111222 
WAVCIS,ioos:station:WAVCIS:CSI09:1,2009-10-10T03:00:00Z,29.1015,-89.9782,23.74,11111222 
WAVCIS,ioos:station:WAVCIS:CSI09:1,2009-10-10T04:00:00Z,29.1015,-89.9782,24.06,11111222 
WAVCIS,ioos:station:WAVCIS:CSI09:1,2009-10-10T05:00:00Z,29.1015,-89.9782,23.87,11111222 
WAVCIS,ioos:station:WAVCIS:CSI09:1,2009-10-10T06:00:00Z,29.1015,-89.9782,24.49,11111222 
WAVCIS,ioos:station:WAVCIS:CSI09:1,2009-10-10T07:00:00Z,29.1015,-89.9782,24.47,11111222 
WAVCIS,ioos:station:WAVCIS:CSI09:1,2009-10-10T08:00:00Z,29.1015,-89.9782,24.66,11111222 
WAVCIS,ioos:station:WAVCIS:CSI09:1,2009-10-10T09:00:00Z,29.1015,-89.9782,25.11,11111222 
WAVCIS,ioos:station:WAVCIS:CSI09:1,2009-10-10T10:00:00Z,29.1015,-89.9782,25.17,11111222 
WAVCIS,ioos:station:WAVCIS:CSI09:1,2009-10-10T11:00:00Z,29.1015,-89.9782,25.14,11111222 
WAVCIS,ioos:station:WAVCIS:CSI09:1,2009-10-10T12:00:00Z,29.1015,-89.9782,24.92,11111222 
WAVCIS,ioos:station:WAVCIS:CSI09:1,2009-10-10T13:00:00Z,29.1015,-89.9782,25.44,11111222 
WAVCIS,ioos:station:WAVCIS:CSI09:1,2009-10-10T14:00:00Z,29.1015,-89.9782,25.79,11111222 
WAVCIS,ioos:station:WAVCIS:CSI09:1,2009-10-10T15:00:00Z,29.1015,-89.9782,26.52,11111222 
WAVCIS,ioos:station:WAVCIS:CSI09:1,2009-10-10T16:00:00Z,29.1015,-89.9782,26.78,11111222 
WAVCIS,ioos:station:WAVCIS:CSI09:1,2009-10-10T17:00:00Z,29.1015,-89.9782,27.15,11111222 
WAVCIS,ioos:station:WAVCIS:CSI09:1,2009-10-10T18:00:00Z,29.1015,-89.9782,27.14,11111222 
WAVCIS,ioos:station:WAVCIS:CSI09:1,2009-10-10T19:00:00Z,29.1015,-89.9782,27.17,11111222 
WAVCIS,ioos:station:WAVCIS:CSI09:1,2009-10-10T20:00:00Z,29.1015,-89.9782,26.92,11111222 
WAVCIS,ioos:station:WAVCIS:CSI09:1,2009-10-10T21:00:00Z,29.1015,-89.9782,25.6,11111222 
WAVCIS,ioos:station:WAVCIS:CSI09:1,2009-10-10T22:00:00Z,29.1015,-89.9782,24.79,11111222 
WAVCIS,ioos:station:WAVCIS:CSI09:1,2009-10-10T23:00:00Z,29.1015,-89.9782,24.53,11111222 
WAVCIS,ioos:station:WAVCIS:CSI09:1,2009-10-11T00:00:00Z,29.1015,-89.9782,24.42,11111222 
WAVCIS,ioos:station:WAVCIS:CSI09:1,2009-10-11T01:00:00Z,29.1015,-89.9782,24.15,11111222 
WAVCIS,ioos:station:WAVCIS:CSI09:1,2009-10-11T02:00:00Z,29.1015,-89.9782,23.55,11111222 
WAVCIS,ioos:station:WAVCIS:CSI09:1,2009-10-11T03:00:00Z,29.1015,-89.9782,23.51,11111222 
WAVCIS,ioos:station:WAVCIS:CSI09:1,2009-10-11T04:00:00Z,29.1015,-89.9782,23.57,11111222 
WAVCIS,ioos:station:WAVCIS:CSI09:1,2009-10-11T05:00:00Z,29.1015,-89.9782,23.82,11111222 
WAVCIS,ioos:station:WAVCIS:CSI09:1,2009-10-11T06:00:00Z,29.1015,-89.9782,24.46,11111222 
WAVCIS,ioos:station:WAVCIS:CSI09:1,2009-10-11T07:00:00Z,29.1015,-89.9782,24.48,11111222 
WAVCIS,ioos:station:WAVCIS:CSI09:1,2009-10-11T08:00:00Z,29.1015,-89.9782,24.66,11111222 
WAVCIS,ioos:station:WAVCIS:CSI09:1,2009-10-11T09:00:00Z,29.1015,-89.9782,24.7,11111222 
WAVCIS,ioos:station:WAVCIS:CSI09:1,2009-10-11T10:00:00Z,29.1015,-89.9782,24.84,11111222 
WAVCIS,ioos:station:WAVCIS:CSI09:1,2009-10-11T11:00:00Z,29.1015,-89.9782,25.12,11111222 
WAVCIS,ioos:station:WAVCIS:CSI09:1,2009-10-11T12:00:00Z,29.1015,-89.9782,25.35,11111222 
WAVCIS,ioos:station:WAVCIS:CSI09:1,2009-10-11T13:00:00Z,29.1015,-89.9782,25.6,11111222 
WAVCIS,ioos:station:WAVCIS:CSI09:1,2009-10-11T14:00:00Z,29.1015,-89.9782,25.93,11111222 
WAVCIS,ioos:station:WAVCIS:CSI09:1,2009-10-11T15:00:00Z,29.1015,-89.9782,26.26,11111222 
WAVCIS,ioos:station:WAVCIS:CSI09:1,2009-10-11T16:00:00Z,29.1015,-89.9782,26.42,11111222 
WAVCIS,ioos:station:WAVCIS:CSI09:1,2009-10-11T17:00:00Z,29.1015,-89.9782,26.45,11111222 
WAVCIS,ioos:station:WAVCIS:CSI09:1,2009-10-11T18:00:00Z,29.1015,-89.9782,26.36,11111222 
WAVCIS,ioos:station:WAVCIS:CSI09:1,2009-10-11T19:00:00Z,29.1015,-89.9782,26.13,11111222 
WAVCIS,ioos:station:WAVCIS:CSI09:1,2009-10-11T20:00:00Z,29.1015,-89.9782,26.41,11111222 
WAVCIS,ioos:station:WAVCIS:CSI09:1,2009-10-11T21:00:00Z,29.1015,-89.9782,24.58,11111222 
WAVCIS,ioos:station:WAVCIS:CSI09:1,2009-10-11T22:00:00Z,29.1015,-89.9782,25.16,11111222 
WAVCIS,ioos:station:WAVCIS:CSI09:1,2009-10-11T23:00:00Z,29.1015,-89.9782,25.72,11111222 
WAVCIS,ioos:station:WAVCIS:CSI09:1,2009-10-12T00:00:00Z,29.1015,-89.9782,25.77,11111222 
WAVCIS,ioos:station:WAVCIS:CSI09:1,2009-10-12T01:00:00Z,29.1015,-89.9782,26.06,11111222 
WAVCIS,ioos:station:WAVCIS:CSI09:1,2009-10-12T02:00:00Z,29.1015,-89.9782,26.5,11111222 
WAVCIS,ioos:station:WAVCIS:CSI09:1,2009-10-12T03:00:00Z,29.1015,-89.9782,26.42,11111222 
WAVCIS,ioos:station:WAVCIS:CSI09:1,2009-10-12T04:00:00Z,29.1015,-89.9782,26.76,11111222 